Temp
37 36 36 38 39 37 36 36 36 37 38 36 37 37 38 39 39 37 37 37 36 35 35 33 32 32 31 31 28 27 27 26 24 24 24 27 26 25 25 24 24 25 25 25
37 35 38 38 37 36 36 36 37 38 38 37 37 37 39 39 39 39 38 38 37 37 36 35 33 32 31 31 29 28 27 25 24 24 25 26 26 26 25 25 24 24 25 25
36 38 37 36 36 36 37 37 37 36 37 38 38 38 38 39 39 39 39 39 38 38 37 36 34 33 32 31 29 28 27 25 24 26 26 26 25 26 26 25 25 25 25 25
37 38 36 36 36 37 37 38 37 36 36 36 39 36 37 38 39 39 40 39 39 38 37 37 35 34 33 31 29 28 26 26 25 25 26 24 24 26 26 26 26 26 24 25
37 36 36 36 37 38 37 37 37 36 36 37 39 38 36 38 38 39 40 40 40 39 38 37 36 34 34 32 30 29 27 26 26 25 25 24 24 24 25 26 27 25 25 24
37 38 37 37 38 37 38 37 37 38 38 37 38 38 38 38 38 39 39 40 40 39 39 38 36 35 34 33 31 30 27 25 25 25 25 25 24 24 25 25 26 24 26 25
37 37 38 37 37 38 37 37 36 36 37 37 38 37 39 38 39 39 39 39 39 39 39 38 37 36 34 34 32 30 28 26 25 25 25 25 25 24 24 24 24 25 24 25
37 36 37 38 37 38 38 38 37 35 36 37 38 37 38 39 40 40 40 39 39 39 39 38 37 36 35 34 33 31 28 26 26 25 25 25 25 25 25 24 26 26 25 25
36 37 38 38 38 38 38 36 39 37 39 37 38 39 40 40 40 40 39 39 38 38 39 39 38 36 35 34 33 30 29 27 26 26 25 25 24 25 26 25 25 25 26 27
37 35 38 38 38 38 38 39 36 38 35 34 36 36 38 38 39 39 39 38 38 38 38 39 39 37 36 35 33 31 30 28 27 28 26 26 25 25 26 26 25 26 26 26
37 36 37 37 37 37 37 37 37 38 37 36 36 36 37 37 38 37 37 37 36 36 36 37 38 38 36 35 34 33 31 30 28 28 28 27 26 26 25 26 26 25 26 26
36 35 35 36 39 39 38 37 37 36 35 37 36 36 39 38 37 37 35 35 34 34 34 35 37 37 36 35 34 33 32 31 29 29 28 27 27 26 26 26 25 25 25 25
34 34 34 35 38 39 37 37 37 37 37 35 35 36 38 36 36 35 33 33 33 32 32 33 33 35 34 34 34 33 32 32 31 30 29 28 28 27 27 26 26 25 24 24
29 34 34 34 35 36 34 35 35 36 35 35 36 36 36 32 33 34 33 32 32 31 31 31 31 30 30 31 32 32 31 31 31 30 30 29 28 28 27 27 25 25 24 24
32 32 33 34 34 34 34 34 34 34 34 33 34 34 35 36 33 32 32 31 30 30 30 29 29 29 28 28 28 29 29 29 30 29 29 29 28 28 27 27 26 25 24 24
33 31 31 31 33 33 33 33 34 34 34 34 34 33 34 34 32 31 30 29 29 28 28 28 29 28 28 27 27 28 28 28 28 28 28 28 27 27 26 26 26 25 24 24
31 31 30 30 33 32 31 33 33 33 33 32 31 31 30 30 29 29 28 28 27 27 27 27 28 28 27 27 27 25 27 27 27 27 27 27 26 26 25 25 25 24 24 24
30 29 30 30 30 29 32 32 31 31 31 32 30 30 29 29 29 30 28 27 27 27 27 27 27 27 26 27 26 26 26 25 27 26 26 26 26 25 25 25 25 24 24 24
31 30 29 29 30 31 32 29 29 29 29 30 29 29 28 28 28 29 26 26 27 27 27 27 26 26 26 26 26 25 26 25 22 23 22 25 25 25 25 24 24 24 24 24
31 29 28 29 27 27 29 28 29 29 27 28 27 27 27 27 26 28 28 27 27 27 26 26 26 25 26 25 25 25 26 26 24 23 23 24 25 24 25 24 24 24 24 24
28 27 28 29 28 29 28 27 28 26 26 26 27 26 26 26 26 27 27 26 26 26 25 25 25 25 25 25 25 24 25 25 25 24 23 24 24 24 24 24 24 24 24 25
27 27 28 29 27 26 27 26 25 26 27 27 26 26 26 26 26 26 26 26 26 26 25 25 25 25 25 25 24 24 24 24 23 23 23 23 24 24 24 24 24 23 24 24
26 27 26 26 28 27 27 26 27 26 26 26 26 26 25 24 25 25 25 25 25 24 24 24 24 24 24 24 24 24 23 23 23 22 23 23 23 23 23 24 23 23 24 25
27 27 25 25 26 26 26 26 25 25 25 25 24 24 24 24 23 23 24 24 24 24 23 22 23 23 24 23 23 23 23 23 22 22 23 23 24 22 23 23 23 25 25 25
27 26 25 24 25 25 25 24 25 25 24 24 23 23 23 23 22 22 22 22 23 22 21 21 21 21 21 22 22 22 22 23 23 23 23 24 25 23 22 23 23 23 25 26
27 26 25 24 25 23 24 24 25 24 23 23 22 22 22 23 23 22 22 21 21 20 20 19 20 20 20 20 20 22 21 21 22 22 24 25 26 22 21 19 20 21 20 19
Height
756 768 771 753 743 751 764 769 769 754 746 757 755 750 736 724 725 735 736 737 740 747 751 760 767 771 775 781 789 796 801 805 809 813 815 816 819 823 826 831 832 834 837 838
760 774 750 742 751 763 764 768 765 749 744 749 746 748 728 720 721 722 729 730 732 736 742 753 763 768 772 777 785 792 797 803 807 811 813 814 816 819 824 827 831 834 836 837
768 750 748 756 761 767 762 765 758 765 752 736 742 742 736 723 721 719 718 718 721 727 734 743 754 762 769 775 782 788 794 799 805 806 809 812 815 818 821 825 829 831 834 836
757 742 755 761 764 756 764 739 752 762 765 773 733 771 744 732 728 719 712 714 715 720 727 734 745 755 761 769 779 785 792 796 800 803 804 810 813 814 817 821 824 827 832 834
756 756 761 765 756 746 757 744 752 755 760 752 735 751 749 728 733 723 710 704 706 713 719 727 737 748 755 763 773 780 787 791 795 799 801 805 811 812 814 816 818 823 827 831
751 736 745 747 742 743 742 751 748 742 740 762 742 749 741 739 735 724 713 708 706 710 715 724 732 742 750 757 765 774 781 787 792 795 799 802 805 809 812 813 815 821 822 826
747 744 735 739 754 742 750 758 767 769 767 762 736 752 735 726 722 716 717 712 709 709 714 721 728 736 744 749 758 767 775 782 787 791 795 798 801 804 808 811 813 814 818 819
755 767 742 733 748 746 746 747 763 787 771 763 733 759 740 716 712 709 708 708 710 711 711 717 726 732 739 745 752 762 770 776 781 786 790 794 797 801 804 807 808 810 814 817
758 756 733 733 730 737 745 761 729 751 738 754 737 727 712 711 712 708 712 712 714 713 710 714 721 728 734 741 748 757 764 771 776 780 785 790 794 797 798 801 805 807 808 811
748 769 734 732 732 731 740 728 761 746 783 786 753 758 740 725 719 715 717 718 720 716 716 712 714 722 729 737 744 753 758 763 769 774 780 784 788 791 794 797 800 803 805 807
746 754 750 736 744 743 743 750 745 740 746 769 770 758 725 727 719 725 724 727 727 725 723 718 713 717 725 732 738 746 753 758 764 768 772 777 782 785 789 792 795 799 801 803
746 758 764 748 722 716 730 744 744 760 763 747 756 754 705 714 719 724 734 734 735 734 731 724 718 720 723 728 734 740 746 752 758 762 767 772 776 780 783 786 790 794 797 800
757 763 772 757 731 717 738 737 733 739 739 758 767 751 709 722 730 731 736 739 738 740 738 735 732 728 729 731 733 739 744 747 751 757 761 766 770 774 777 781 784 788 792 795
774 765 770 776 758 746 759 751 745 747 761 754 749 738 725 743 749 739 740 741 743 745 745 745 743 744 741 738 737 738 742 745 748 751 754 758 763 767 770 774 778 781 784 788
767 775 764 758 754 753 756 757 753 758 754 765 754 750 736 728 740 745 744 746 748 751 751 750 748 747 747 745 744 743 742 744 745 747 749 752 756 761 764 767 771 776 779 782
759 780 774 775 760 756 760 753 750 750 750 750 748 751 734 733 739 747 751 751 756 757 756 754 751 750 748 748 747 745 744 744 745 745 746 748 751 755 759 763 766 770 775 778
774 773 778 781 757 761 774 750 748 746 748 749 763 756 753 754 756 756 759 758 762 762 760 758 754 752 751 748 747 748 743 741 742 744 746 746 746 749 753 758 761 764 769 773
773 778 777 781 772 794 750 746 752 759 756 749 757 756 758 763 762 755 757 765 765 763 762 759 756 755 752 749 747 745 742 740 735 741 742 745 744 743 747 750 754 759 763 766
760 772 778 783 775 758 752 760 763 770 768 754 763 765 764 765 764 755 760 765 763 762 761 758 756 755 753 750 746 744 738 735 737 720 733 742 739 739 740 743 746 751 756 759
762 770 785 778 793 795 764 765 763 762 781 765 771 772 771 769 774 757 756 761 761 760 758 756 755 753 749 747 746 741 739 734 729 726 729 737 733 733 734 736 739 744 748 752
777 784 782 773 778 768 765 768 763 792 788 773 771 771 771 773 768 762 758 758 758 756 755 753 752 749 746 745 744 744 741 737 733 733 735 729 727 728 727 732 734 737 742 745
783 783 776 768 782 792 769 772 787 777 770 770 770 768 768 765 762 759 755 752 751 750 750 749 745 743 742 741 740 737 737 735 734 732 728 723 721 721 722 724 728 731 735 739
791 777 782 780 770 766 768 772 770 771 772 769 767 765 765 764 761 757 753 749 748 747 746 745 740 737 737 737 736 733 730 730 727 727 724 721 717 715 716 720 725 727 730 732
770 770 784 785 769 770 768 769 773 772 773 772 771 768 764 761 758 755 750 745 741 739 740 740 736 732 730 731 731 729 727 724 722 719 716 714 710 710 711 713 716 716 718 722
772 773 780 780 772 771 773 773 768 769 769 769 768 764 758 755 752 749 744 741 738 736 736 734 733 729 727 725 723 724 722 721 719 716 713 710 705 704 704 706 707 710 712 712
766 772 777 779 772 776 774 769 768 767 765 763 761 758 754 749 743 742 739 736 732 730 729 728 725 722 720 719 718 716 718 718 716 713 710 703 699 702 703 706 706 705 705 709
Wind_Speed
13 12 12 13 3 12 7 10 10 7 6 9 11 14 11 10 13 10 11 14 17 17 18 23 22 23 22 23 25 23 22 18 14 16 15 15 17 14 15 15 8 9 11 10
11 11 14 8 6 7 11 12 12 3 4 10 12 13 14 5 8 10 13 14 15 18 19 22 24 24 24 23 23 23 22 19 19 18 19 15 14 18 18 16 16 13 13 10
13 5 6 7 9 13 13 14 11 9 12 20 8 8 3 6 2 5 9 13 16 17 19 21 24 27 25 25 25 25 24 23 22 19 18 13 11 11 17 17 16 15 15 14
10 10 5 8 10 8 14 6 3 8 12 11 11 7 10 5 7 10 12 13 13 16 18 20 22 26 28 26 25 25 25 24 23 21 18 18 17 19 18 19 19 19 17 16
5 5 8 9 8 6 12 4 9 11 13 15 15 7 10 8 2 7 5 2 14 15 18 19 21 27 27 27 26 26 26 27 24 25 21 21 19 19 13 20 17 19 20 18
11 4 6 8 5 7 10 8 16 18 14 12 9 8 11 10 6 8 5 3 5 12 15 17 23 25 25 27 28 27 28 28 27 26 25 22 21 18 17 17 18 17 19 18
15 15 14 9 12 10 10 13 12 7 8 4 10 6 3 9 6 8 5 4 5 10 13 17 19 20 25 27 28 28 28 28 28 27 25 24 22 20 19 18 20 22 18 17
10 8 7 8 12 10 13 15 10 4 8 2 7 3 6 7 4 4 9 6 3 7 12 15 18 21 25 26 28 27 29 29 28 28 27 24 22 20 19 20 20 21 19 22
5 4 6 6 10 7 7 8 12 11 14 8 9 9 10 9 8 7 10 9 6 3 5 12 16 21 23 26 28 29 29 30 29 29 26 24 24 23 20 21 21 18 19 22
4 10 8 7 6 13 14 14 10 9 9 9 2 8 5 10 6 7 8 10 9 8 3 8 14 21 23 25 26 27 30 30 30 28 26 26 25 24 21 20 22 22 20 22
12 10 11 7 13 15 10 13 12 13 9 12 12 3 4 5 9 7 10 10 11 12 10 8 9 16 20 21 23 26 28 29 29 29 28 26 26 25 23 21 21 21 21 19
7 9 12 16 15 10 9 13 16 13 13 12 8 16 13 5 13 10 11 8 9 11 11 12 5 8 10 18 20 23 25 27 28 28 27 28 26 26 25 25 22 22 22 21
11 7 10 12 15 20 7 12 8 12 15 17 14 12 12 10 8 8 9 9 9 11 12 12 13 9 4 10 15 18 21 24 26 28 29 28 27 27 26 25 24 24 24 24
5 13 15 13 18 15 13 13 14 15 12 15 15 19 6 12 7 7 9 9 10 10 11 11 10 9 11 9 9 12 17 20 22 26 29 29 29 29 28 27 27 27 27 26
8 12 13 14 16 16 18 18 18 19 19 19 19 22 21 20 8 8 8 9 10 11 12 11 10 9 10 9 5 10 13 16 20 21 23 25 28 28 28 27 29 27 27 28
7 11 9 15 16 18 16 16 17 17 17 18 18 17 13 14 10 8 10 10 10 11 12 11 11 11 11 10 9 7 10 14 18 20 24 24 24 27 27 26 27 28 27 26
11 11 10 12 12 8 14 8 8 8 8 10 10 10 13 13 11 8 8 8 9 10 11 12 11 11 13 12 10 10 13 10 14 19 21 24 25 26 27 27 26 27 28 27
11 7 8 11 11 14 6 3 6 6 11 11 5 12 9 9 11 13 6 7 9 10 11 10 12 14 15 14 12 14 11 11 9 12 21 24 25 26 26 27 28 27 27 28
4 7 8 9 10 13 12 13 6 9 10 8 7 9 9 11 14 11 11 8 11 11 12 13 14 15 15 14 15 13 15 7 13 7 32 30 25 25 26 27 28 28 28 28
8 4 7 10 12 10 5 7 5 9 12 10 7 10 12 13 12 2 11 14 14 17 17 17 18 18 16 15 15 14 12 15 8 11 27 32 24 25 25 26 27 28 28 28
7 8 11 11 12 10 10 7 7 10 6 11 11 12 14 14 12 18 20 17 20 21 21 23 22 20 20 17 16 14 14 12 8 13 20 25 20 24 24 26 26 26 27 28
6 6 9 10 6 13 11 7 6 12 13 15 16 16 16 17 19 20 21 21 20 21 25 26 25 23 22 20 19 18 15 15 14 16 16 17 20 21 23 25 24 23 24 24
7 5 7 7 9 8 6 5 9 10 13 16 17 19 18 19 21 22 22 22 20 27 25 29 28 25 25 22 21 21 20 18 19 17 16 17 19 21 23 24 26 25 23 25
5 8 6 8 2 3 6 8 9 13 16 17 18 19 19 19 20 20 22 22 21 26 19 24 26 27 24 24 24 24 22 20 20 20 19 17 14 14 18 24 25 30 28 28
8 8 8 12 13 10 10 8 13 15 18 17 18 18 18 20 19 18 17 16 23 25 27 26 25 27 28 26 25 26 25 21 20 20 20 17 18 12 15 24 23 24 25 23
8 8 9 9 11 10 15 14 18 19 17 18 16 15 19 20 23 23 20 24 28 28 29 27 28 29 28 26 27 26 26 24 20 19 19 20 13 10 10 8 11 16 18 24
Wind_Direction
198 235 234 240 304 2 318 273 285 288 48 292 303 297 287 265 182 213 220 200 188 199 183 179 190 187 194 185 180 190 198 198 182 189 201 200 186 192 191 196 198 171 205 187
220 227 254 296 329 268 267 263 265 310 258 300 293 296 269 279 237 199 201 224 209 190 189 182 188 190 194 189 192 192 201 192 194 196 207 203 206 187 195 189 195 196 202 195
253 309 5 300 250 247 247 260 284 332 318 281 250 278 153 140 185 202 228 215 210 202 195 183 188 193 193 190 193 193 199 191 198 214 204 201 202 205 192 191 205 200 201 207
261 254 216 243 248 244 264 218 312 285 286 312 305 295 122 158 205 206 214 199 215 201 197 188 189 197 194 190 194 193 196 196 200 205 201 197 201 207 200 208 200 201 200 204
106 226 213 242 251 237 273 21 291 284 274 277 269 246 128 186 32 348 351 238 179 192 194 198 190 195 202 192 193 193 194 199 200 201 214 195 209 218 213 202 204 202 194 205
278 226 244 268 250 249 274 280 260 244 248 255 80 293 159 107 27 12 13 175 162 178 191 193 185 194 203 195 190 196 192 197 200 202 210 208 205 212 211 218 205 199 212 204
197 215 207 228 247 211 230 253 263 226 243 108 90 283 101 98 48 16 49 132 167 165 187 182 187 191 198 200 193 193 192 199 200 204 208 212 212 212 214 214 217 211 212 217
281 159 174 179 233 262 202 250 295 316 312 26 167 247 93 81 146 36 83 77 151 188 177 185 190 196 196 200 194 194 196 200 200 203 208 210 211 214 216 214 214 218 213 218
325 156 126 210 203 249 174 244 273 313 288 240 256 129 197 149 193 119 88 73 100 211 229 189 187 200 198 201 197 197 198 199 203 203 204 206 208 214 214 210 220 225 221 218
346 287 182 116 236 238 263 312 285 242 260 286 54 278 200 185 120 56 62 62 43 43 352 252 195 196 203 202 201 200 202 201 203 203 203 206 206 209 217 213 210 222 223 220
307 287 278 186 229 257 180 232 224 253 288 308 291 60 35 263 87 59 55 36 28 26 11 333 233 206 199 204 203 200 206 203 206 204 203 205 206 206 209 213 215 216 223 215
352 309 291 289 298 284 270 287 291 282 277 263 296 298 103 57 78 65 61 36 39 24 15 1 325 218 216 206 206 205 206 208 207 207 204 206 207 206 205 209 210 212 217 222
1 271 290 272 247 219 216 273 247 280 283 282 289 279 106 74 63 71 64 32 41 28 22 22 14 360 223 242 222 213 216 214 208 209 206 208 207 206 210 208 208 207 210 215
308 267 264 281 307 323 305 289 277 288 281 287 281 298 321 112 311 13 41 30 25 31 30 26 31 24 354 329 272 236 222 225 222 210 211 207 208 208 210 206 207 205 205 208
253 278 290 289 298 297 290 284 280 273 276 276 288 294 299 313 69 20 29 21 24 26 23 21 24 20 20 6 299 273 246 237 229 222 214 210 205 209 209 206 201 207 202 206
280 284 279 280 277 262 275 284 280 279 276 273 277 278 359 10 30 21 8 23 17 12 12 13 17 15 12 6 350 323 262 246 241 235 224 214 205 208 211 210 203 201 206 206
282 283 285 280 292 305 273 305 307 290 314 312 297 34 17 350 360 15 1 14 13 5 359 358 356 1 359 355 350 341 323 255 243 246 238 224 211 207 211 210 207 202 204 205
254 255 274 274 287 271 76 81 341 304 307 288 342 333 8 350 327 311 105 4 353 357 344 349 348 342 342 333 350 339 329 298 229 258 244 236 221 210 209 208 207 206 204 205
261 281 278 278 262 294 307 43 14 353 307 344 347 323 335 331 317 307 51 336 330 333 323 329 330 328 324 330 332 340 326 303 252 242 307 247 227 219 211 210 208 206 207 208
273 201 272 284 296 291 73 67 11 320 275 42 346 323 324 322 301 291 353 329 313 311 312 316 313 313 315 324 326 327 319 315 300 236 258 259 228 219 218 213 212 210 210 212
223 230 264 272 272 282 55 3 312 266 1 330 316 315 310 303 304 304 304 301 300 303 305 303 300 296 302 304 313 310 305 295 303 289 250 246 237 228 215 219 212 211 211 216
268 284 277 276 258 267 42 321 344 338 318 324 316 308 302 300 299 298 298 296 296 296 298 297 288 283 286 292 297 297 298 301 298 287 284 278 246 235 219 217 213 207 211 212
267 244 321 314 320 338 338 297 333 317 313 314 316 318 311 304 300 303 299 295 294 294 289 287 285 280 278 275 278 285 288 295 299 295 292 289 280 265 232 222 218 204 211 211
240 235 267 306 344 305 314 323 338 323 328 317 308 296 299 303 296 292 294 297 299 294 291 296 295 291 276 272 270 271 276 281 291 299 296 292 286 282 256 236 224 213 207 208
306 318 281 279 271 311 311 274 318 316 313 316 311 303 302 302 291 282 282 293 290 294 290 280 281 278 280 277 264 262 269 272 276 287 292 286 279 269 260 237 229 228 238 232
258 282 273 294 293 301 295 303 306 308 304 298 288 295 289 294 304 303 294 290 286 287 285 281 274 273 271 269 271 258 260 269 269 275 279 276 275 266 276 243 271 277 284 304